Stations météo

Publicité
Aeroport de Brive-Souillac, France (7439): Température de l'air & dewpoint: 12.06.2019 15:00:00 - 18.06.2019 15:00:00 (CEST)Aeroport de Brive-Souillac, France (7439): Vitesse du vent & gusts: 12.06.2019 15:00:00 - 18.06.2019 15:00:00 (CEST)Aeroport de Brive-Souillac, France (7439): Direction du vent: 12.06.2019 15:00:00 - 18.06.2019 15:00:00 (CEST)Aeroport de Brive-Souillac, France (7439): reduced air pressure: 12.06.2019 15:00:00 - 18.06.2019 15:00:00 (CEST)Aeroport de Brive-Souillac, France (7439): visibility: 12.06.2019 15:00:00 - 18.06.2019 15:00:00 (CEST)Aeroport de Brive-Souillac, France (7439): Quantités de précipitations: 12.06.2019 15:00:00 - 18.06.2019 15:00:00 (CEST)
Date & Time tt [°C] td [°C] ff [km/h] ff [knt] fx [km/h] fx [knt] dd ppp [hPa] vv [km] rr [mm]
18.06.2019 15:00:00 28,9 13,9 16 9 31 17 S 1009,8 52 0,0
18.06.2019 14:00:00 28,1 12,8 15 8 31 17 SSE 1010,5 60 0,0
18.06.2019 13:00:00 26,8 14,2 13 7 26 14 SE 1011,1 60 0,0
18.06.2019 12:00:00 23,1 14,9 10 5 14 7 ESE 1011,6 56 0,0
18.06.2019 11:00:00 24,0 12,3 6 4 16 9 SE 1012,0 60 0,0
18.06.2019 10:00:00 22,9 11,9 9 5 20 11 SE 1011,8 10 0,0
18.06.2019 09:00:00 22,1 12,9 6 3 20 11 E 1012,3 20 0,0
18.06.2019 08:00:00 18,7 12,7 10 5 18 10 SE 1012,1 60 0,0
18.06.2019 07:00:00 17,0 12,5 8 5 13 7 SE 1012,5 60 0,0
18.06.2019 06:00:00 15,9 13,0 4 2 13 7 SE 1012,9 60 0,0
18.06.2019 05:00:00 14,8 13,0 3 1 9 5 SE 1013,1 60 0,0
18.06.2019 04:00:00 16,2 13,3 8 4 12 7 E 1013,3 60 0,0
18.06.2019 03:00:00 13,9 12,5 5 3 8 4 ESE 1013,9 60 0,0
18.06.2019 02:00:00 13,7 12,1 2 1 3 1 ESE 1014,5 60 0,0
18.06.2019 01:00:00 14,0 12,2 0 0 3 1 N 1014,8 60 0,0
18.06.2019 00:00:00 14,4 12,4 0 0 3 1 N 1014,8 10 0,0
17.06.2019 23:00:00 15,7 13,0 0 0 3 2 N 1014,5 55 0,0
17.06.2019 22:00:00 19,0 14,5 0 0 4 2 N 1014,1 60 0,0
17.06.2019 21:00:00 26,0 14,8 0 0 10 5 N 1013,2 18 0,0
17.06.2019 20:00:00 27,6 13,2 5 3 16 9 ENE 1013,0 10 0,0
17.06.2019 19:00:00 27,9 13,8 6 3 16 9 NE 1013,2 18 0,0
17.06.2019 18:00:00 28,8 13,1 4 2 13 7 SSE 1013,5 18 0,0
17.06.2019 17:00:00 28,3 12,6 4 2 15 8 WSW 1014,0 42 0,0
17.06.2019 16:00:00 27,0 11,9 9 5 18 10 SE 1014,7 19 0,0
17.06.2019 15:00:00 26,9 13,3 8 4 21 11 SW 1015,1 60 0,0
17.06.2019 14:00:00 26,0 12,8 8 5 18 10 S 1015,7 48 0,0
17.06.2019 13:00:00 25,0 13,9 6 3 16 9 N 1016,2 35 0,0
17.06.2019 12:00:00 24,0 13,8 4 2 12 6 NW 1016,6 60 0,0
17.06.2019 11:00:00 22,4 13,2 3 2 10 5 W 1016,8 53 0,0
17.06.2019 10:00:00 20,1 13,3 6 3 13 7 ESE 1017,3 60 0,0
17.06.2019 09:00:00 17,8 12,5 8 5 13 7 ESE 1018,0 60 0,0
17.06.2019 08:00:00 15,0 12,7 6 3 9 5 ESE 1018,4 54 0,0
17.06.2019 07:00:00 10,5 10,3 0 0 3 2 N 1018,7 34 0,0
17.06.2019 06:00:00 9,1 8,6 0 0 3 1 N 1018,7 32 0,0
17.06.2019 05:00:00 9,6 9,3 0 0 2 1 N 1018,7 37 0,0
17.06.2019 04:00:00 10,1 9,6 0 0 3 2 N 1018,6 37 0,0
17.06.2019 03:00:00 10,8 10,2 0 0 3 1 N 1018,6 42 0,0
17.06.2019 02:00:00 11,7 10,8 0 0 3 2 N 1018,7 48 0,0
17.06.2019 01:00:00 12,9 11,6 3 2 8 4 NW 1018,8 60 0,0
17.06.2019 00:00:00 13,8 12,0 3 1 8 4 NNW 1019,0 60 0,0
16.06.2019 23:00:00 14,9 12,2 5 3 9 5 WNW 1019,1 60 0,0
16.06.2019 22:00:00 17,7 12,6 7 4 15 8 WNW 1018,7 60 0,0
16.06.2019 21:00:00 21,7 12,5 11 6 20 11 NW 1018,0 55 0,0
16.06.2019 20:00:00 22,9 11,3 13 7 23 12 NNW 1018,1 47 0,0
16.06.2019 19:00:00 23,2 10,9 9 5 19 10 NW 1018,4 59 0,0
16.06.2019 18:00:00 23,2 9,9 6 4 18 10 NW 1018,7 52 0,0
16.06.2019 17:00:00 23,0 10,4 8 4 20 11 NW 1019,2 59 0,0
16.06.2019 16:00:00 22,3 11,4 12 7 23 12 N 1019,8 60 0,0
16.06.2019 15:00:00 21,8 10,9 8 5 20 11 W 1020,1 60 0,0
16.06.2019 14:00:00 21,0 10,8 7 4 18 10 ENE 1020,8 60 0,0
16.06.2019 13:00:00 19,7 10,4 6 4 16 9 E 1021,4 60 0,0
16.06.2019 12:00:00 19,2 10,5 4 2 15 8 ESE 1022,0 52 0,0
16.06.2019 11:00:00 18,2 11,5 6 3 15 8 SE 1022,3 55 0,0
16.06.2019 10:00:00 16,9 11,6 5 3 9 5 ESE 1022,8 44 0,0
16.06.2019 09:00:00 15,3 12,6 3 1 6 3 ESE 1023,1 43 0,0
16.06.2019 08:00:00 11,7 11,1 0 0 3 2 N 1023,2 19 0,0
16.06.2019 07:00:00 7,9 7,9 0 0 4 2 N 1023,6 0,1 0,0
16.06.2019 06:00:00 7,1 7,0 0 0 3 1 N 1023,4 19 0,2
16.06.2019 05:00:00 7,4 7,3 0 0 3 2 N 1023,1 20 0,0
16.06.2019 04:00:00 7,9 7,8 0 0 4 2 N 1023,3 19 0,0
16.06.2019 03:00:00 8,7 8,4 0 0 3 2 N 1023,3 18 0,0
16.06.2019 02:00:00 9,6 9,3 0 0 6 3 N 1023,5 27 0,0
16.06.2019 01:00:00 10,6 10,3 5 3 8 4 WNW 1023,2 43 0,0
16.06.2019 00:00:00 11,3 10,8 4 2 6 4 NW 1023,1 27 0,0
15.06.2019 23:00:00 12,3 11,7 0 0 3 2 N 1022,6 25 0,0
15.06.2019 22:00:00 13,9 12,8 0 0 4 2 N 1021,7 21 0,0
15.06.2019 21:00:00 17,4 14,1 2 1 6 4 SW 1021,1 60 0,0
15.06.2019 20:00:00 17,8 12,7 4 2 13 7 WSW 1020,8 60 0,0
15.06.2019 19:00:00 18,3 11,4 8 5 17 9 NW 1020,6 60 0,0
15.06.2019 18:00:00 18,3 11,1 14 7 26 14 NW 1020,3 59 0,0
15.06.2019 17:00:00 18,8 11,4 13 7 24 13 NNW 1020,1 60 0,0
15.06.2019 16:00:00 16,7 11,6 11 6 23 13 NNW 1020,3 55 0,0
15.06.2019 15:00:00 16,3 11,9 7 4 25 13 NNW 1020,1 54 0,0
15.06.2019 14:00:00 16,0 11,8 17 9 37 20 NW 1019,9 38 0,0
15.06.2019 13:00:00 14,6 12,8 8 4 32 17 W 1020,0 43 0,4
15.06.2019 12:00:00 13,0 12,4 9 5 36 20 W 1019,9 33 0,0
15.06.2019 11:00:00 12,8 12,8 13 7 22 12 NW 1019,2 17 0,6
15.06.2019 10:00:00 12,4 12,4 11 6 22 12 W 1018,8 3,9 1,0
15.06.2019 09:00:00 12,9 12,9 3 1 22 12 W 1017,6 12 2,0
15.06.2019 08:00:00 12,6 12,6 8 4 18 10 WNW 1017,3 0,8 0,8
15.06.2019 07:00:00 13,2 13,2 9 5 17 9 WNW 1016,9 4,5 0,0
15.06.2019 06:00:00 14,2 14,2 0 0 9 5 N 1016,4 0,6 0,0
15.06.2019 05:00:00 14,0 14,0 3 2 13 7 SSW 1016,6 5 0,0
15.06.2019 04:00:00 14,1 14,1 7 4 10 6 ESE 1015,8 4,0 0,0
15.06.2019 03:00:00 14,0 14,0 6 3 8 5 ESE 1016,0 6 0,0
15.06.2019 02:00:00 13,9 13,7 4 2 9 5 S 1015,9 15 0,0
15.06.2019 01:00:00 13,9 13,7 2 1 6 3 SSW 1015,6 15 0,0
15.06.2019 00:00:00 13,8 13,8 5 3 7 4 ESE 1014,9 11 0,0
14.06.2019 23:00:00 13,4 13,4 2 1 13 7 WSW 1014,8 10 0,2
14.06.2019 22:00:00 13,4 13,2 8 5 14 7 WNW 1014,1 16 0,0
14.06.2019 21:00:00 14,3 14,0 4 2 21 12 WNW 1013,4 20 0,0
14.06.2019 20:00:00 13,9 13,1 11 6 26 14 W 1013,0 11 3,4
14.06.2019 19:00:00 16,3 11,4 9 5 24 13 NW 1012,3 59 0,0
14.06.2019 18:00:00 17,3 11,6 13 7 19 10 NW 1011,7 60 0,0
14.06.2019 17:00:00 18,0 11,5 12 6 20 11 WNW 1011,7 30 0,0
14.06.2019 16:00:00 19,0 12,3 12 6 18 10 NW 1010,9 56 0,0
14.06.2019 15:00:00 20,5 10,6 8 5 16 9 NW 1010,9 49 0,0
14.06.2019 14:00:00 21,1 9,7 4 2 14 8 N 1011,1 43 0,0
14.06.2019 13:00:00 19,6 9,5 3 2 17 9 SSE 1012,3 59 0,0
14.06.2019 12:00:00 19,0 8,3 8 4 18 10 E 1012,5 51 0,0
14.06.2019 11:00:00 19,0 7,1 9 5 26 14 SE 1012,9 53 0,0
14.06.2019 10:00:00 18,0 9,1 9 5 17 9 SSE 1012,9 53 0,0
14.06.2019 09:00:00 16,1 9,7 11 6 17 9 ESE 1012,6 55 0,0
14.06.2019 08:00:00 13,8 8,6 7 4 18 10 ESE 1013,4 60 0,0
14.06.2019 07:00:00 12,0 8,8 8 5 13 7 SE 1013,5 60 0,0
14.06.2019 06:00:00 11,6 9,2 3 2 7 4 S 1014,1 60 0,0
14.06.2019 05:00:00 11,5 8,9 2 1 5 3 WNW 1013,5 60 0,0
14.06.2019 04:00:00 10,6 8,0 0 0 3 2 N 1013,0 60 0,0
14.06.2019 03:00:00 11,5 8,5 0 0 5 3 N 1012,6 60 0,0
14.06.2019 02:00:00 12,4 8,7 0 0 4 2 N 1012,2 60 0,0
14.06.2019 01:00:00 15,0 7,8 2 1 22 12 SSE 1011,7 60 0,0
14.06.2019 00:00:00 18,7 6,5 11 6 21 11 SSE 1011,0 60 0,0
13.06.2019 23:00:00 20,1 9,0 10 6 24 13 SSE 1010,6 60 0,0
13.06.2019 22:00:00 18,2 13,3 3 2 9 5 SE 1010,1 60 0,0
13.06.2019 21:00:00 22,2 13,3 6 4 21 11 NNE 1009,4 60 0,0
13.06.2019 20:00:00 24,0 12,6 14 7 20 11 NNW 1009,4 45 0,0
13.06.2019 19:00:00 25,6 12,8 6 3 19 10 W 1009,2 45 0,0
13.06.2019 18:00:00 24,6 11,5 6 4 23 13 SW 1009,7 59 0,0
13.06.2019 17:00:00 25,1 12,3 5 3 26 14 W 1009,7 52 0,0
13.06.2019 16:00:00 24,6 11,9 10 5 26 14 SSW 1010,3 60 0,0
13.06.2019 15:00:00 24,1 11,8 9 5 22 12 SSW 1010,5 60 0,0
13.06.2019 14:00:00 22,5 10,6 7 4 24 13 SSE 1011,1 60 0,0
13.06.2019 13:00:00 21,7 9,6 11 6 29 15 S 1011,7 56 0,0
13.06.2019 12:00:00 20,4 10,5 11 6 22 12 SSE 1011,6 60 0,0
13.06.2019 11:00:00 18,2 9,0 14 8 33 18 ESE 1012,2 58 0,0
13.06.2019 10:00:00 16,0 8,7 14 8 21 11 ESE 1013,0 56 0,0
13.06.2019 09:00:00 13,8 8,6 6 3 14 8 ESE 1013,4 50 0,0
13.06.2019 08:00:00 11,0 8,6 5 3 10 5 E 1013,6 57 0,0
13.06.2019 07:00:00 7,7 7,7 5 3 7 4 SE 1014,4 28 0,0
13.06.2019 06:00:00 6,1 6,0 2 1 5 3 S 1014,9 45 0,0
13.06.2019 05:00:00 5,5 5,4 2 1 3 2 S 1014,8 36 0,0
13.06.2019 04:00:00 6,2 6,2 0 0 5 3 N 1015,0 25 0,0
13.06.2019 03:00:00 6,4 6,4 2 1 6 3 SE 1015,6 21 0,0
13.06.2019 02:00:00 6,1 5,8 2 1 3 2 SSE 1016,0 34 0,0
13.06.2019 01:00:00 6,9 6,6 0 0 3 2 N 1016,0 33 0,0
13.06.2019 00:00:00 7,9 7,5 2 1 5 3 ESE 1015,9 28 0,0
12.06.2019 23:00:00 9,1 8,6 2 1 4 2 ESE 1015,9 40 0,0
12.06.2019 22:00:00 11,0 9,9 2 1 9 5 SW 1015,3 46 0,0
12.06.2019 21:00:00 14,1 10,9 6 3 15 8 SSW 1014,8 60 0,0
12.06.2019 20:00:00 14,2 11,4 4 2 19 10 SSW 1014,4 60 0,0
12.06.2019 19:00:00 14,0 11,3 8 4 26 14 W 1014,2 10 0,6
12.06.2019 18:00:00 15,1 11,9 9 5 29 16 WSW 1014,0 59 0,0
12.06.2019 17:00:00 13,0 11,7 9 5 34 18 W 1014,1 16 0,2
12.06.2019 16:00:00 15,1 11,9 8 5 32 17 SW 1013,5 37 0,4
12.06.2019 15:00:00 16,4 9,8 16 9 43 23 SSW 1012,7 40 0,0

tt = Température de l'air
td = dewpoint
ff = Vitesse du vent
fx = gusts
dd = Direction du vent
ppp = reduced air pressure
vv = visibility
rr = Quantités de précipitations

stations d'obs. à proximité